Regional Weather Roundup
Issued by NWS

Home | Current Version | Previous Version | Text Only | Print | Product List | Glossary On
Versions: 1 2 3 4 5 6 7 8 9 10 11 12 13 14 15 16 17 18 19 20 21 22 23 24 25 26 27 28 29 30 31 32 33 34 35 36 37 38 39 40 41 42 43 44 45 46 47 48 49 50
821
ASUS43 KMKX 210100
RWRWI

WISCONSIN REGIONAL WEATHER ROUNDUP
NATIONAL WEATHER SERVICE MILWAUKEE/SULLIVAN WI
800 PM CDT WED SEP 20 2017

NOTE: "FAIR" INDICATES FEW OR NO CLOUDS BELOW 12,000 FEET WITH NO
SIGNIFICANT WEATHER AND/OR OBSTRUCTIONS TO VISIBILITY.

WIZ001-002-006>008-014>016-023>028-210200-
NORTHWEST WISCONSIN

CITY           SKY/WX    TMP DP  RH WIND       PRES   REMARKS
SUPERIOR ARPT  CLEAR     60  49  65 W7        29.86R
ASHLAND        CLEAR     61  53  75 CALM      29.85R
HAYWARD        CLEAR     59  56  89 CALM      29.88R
SIREN          CLEAR     61  52  71 NW3       29.88R
CUMBERLAND     CLEAR     59  50  72 NW6       29.87R
RICE LAKE      CLEAR     61  55  81 CALM      29.88R
CHETEK         CLEAR     62  57  83 CALM      29.86S
LADYSMITH      CLEAR     65  58  77 CALM      29.87S
EAU CLAIRE     NOT AVBL
MENOMONIE      CLEAR     67  56  68 NW3       29.85S
NEW RICHMOND   CLEAR     64  50  59 NW3       29.87S
OSCEOLA        CLEAR     61  52  72 CALM      29.89S
$$

WIZ003>005-009-010-017-018-210200-
NORTH CENTRAL WISCONSIN

CITY           SKY/WX    TMP DP  RH WIND       PRES   REMARKS
MANITOWISH WTR MOCLDY    64  64 100 CALM      29.87S
ARBOR VITAE    CLEAR     67  66  95 CALM      29.88R FOG
WOODRUFF       CLEAR     67  66  95 CALM      29.88R FOG
RHINELANDER    CLOUDY    68  68 100 N3        29.90R FOG
EAGLE RIVER    CLOUDY    66  66 100 SE3       29.88R FOG
LAND O LAKES   FOG       67  66  99 CALM      29.90R VSB<1/4
PHILLIPS       MOCLDY    65  62  92 CALM      29.86S
TOMAHAWK         N/A     66  63  90 CALM      29.86R
MEDFORD        MOCLDY    65  61  85 NW3       29.86R
MERRILL        NOT AVBL
$$

WIZ029-030-035-036-043>047-210200-
CENTRAL WISCONSIN

CITY           SKY/WX    TMP DP  RH WIND       PRES   REMARKS
WAUSAU         CLOUDY    70  70 100 NW6       29.86R FOG
MOSINEE        MOCLDY    72  70  94 CALM      29.87R FOG
MARSHFIELD     MOCLDY    68  64  87 NE5       29.88R
STEVENS POINT  CLOUDY    68  68 100 SW5       29.86R
WAUPACA        HVY RAIN  72  68  87 W25G35    29.87R
WAUTOMA        RAIN      72  70  93 NW14G24   29.82S
WISC RAPIDS    CLOUDY    70  69  97 CALM      29.85R
CAMP DOUGLAS   NOT AVBL
$$

WIZ011>013-019>022-031-037>040-048>050-210200-
NORTHEAST WISCONSIN

CITY           SKY/WX    TMP DP  RH WIND       PRES   REMARKS
ANTIGO         CLOUDY    68  68 100 CALM      29.88S FOG
SHAWANO        CLOUDY    73  69  87 S7        29.84R
OCONTO         CLOUDY    71  67  89 CALM      29.84R
STURGEON BAY   NOT AVBL
GREEN BAY      HVY RAIN  72  72 100 SE10      29.83R FOG
MANITOWOC      CLOUDY    71  67  87 SE9       29.84
APPLETON       TSTM      73  72  94 W7        29.84R
CLINTONVILLE   NOT AVBL
OSHKOSH        CLOUDY    74  71  91 SE7G16    29.81S THUNDER
$$

WIZ032>034-041-042-053>061-210200-
SOUTHWEST WISCONSIN

CITY           SKY/WX    TMP DP  RH WIND       PRES   REMARKS
LA CROSSE      NOT AVBL
SPARTA         CLOUDY    70  67  89 NW7       29.85R
VIROQUA        PTCLDY    71  70  99 NW3       29.86S
BOSCOBEL       LGT RAIN  77  72  84 NE3       29.82R
PRAIRIE DU CHI CLOUDY    74  71  88 CALM      29.81R
PLATTEVILLE    CLOUDY    77  72  86 S13       29.85R
$$

WIZ056-057-062-063-064-067-068-210200-
SOUTH CENTRAL WISCONSIN

CITY           SKY/WX    TMP DP  RH WIND       PRES   REMARKS
REEDSBURG      CLOUDY    75  69  82 W13G26    29.82R
BARABOO/DELLS  CLOUDY    75  72  88 CALM      29.81R
LONE ROCK      CLOUDY    79  73  83 NW14      29.82R HX  82
MINERAL POINT  LGT RAIN  73  73 100 CALM      29.82S
MADISON        CLOUDY    83  72  69 S7        29.80S THUNDER HX  88
MIDDLETON      CLOUDY    84  71  64 SW5       29.82S HX  88
WATERTOWN      CLOUDY    82  68  63 S7        29.82R HX  84
MONROE         CLOUDY    81  66  61 S7        29.82S HX  83
JANESVILLE     NOT AVBL
$$

WIZ051-052-058>065-066-070>072-210200-
SOUTHEAST WISCONSIN

CITY           SKY/WX    TMP DP  RH WIND       PRES   REMARKS
MILWAUKEE      PTCLDY    80  69  69 S6        29.83R HX  83
WAUKESHA       CLEAR     81  64  57 S9        29.85R HX  82
MILWAUKEE/TIMM CLEAR     81  64  57 S8        29.83S HX  82
RACINE         CLEAR     74  68  81 S3        29.85S
BURLINGTON     CLEAR     79  67  68 CALM      29.84R HX  81
KENOSHA        CLEAR     80  67  64 S5        29.84R HX  82
FOND DU LAC    TSTM      76  71  85 VRB5      29.84R
SHEBOYGAN      CLOUDY    74  69  85 S8        29.82F
WEST BEND        N/A     73  70  88 SE3       29.83S
JUNEAU         RAIN      79  69  70 S5        29.83R HX  82
$$

LSZ147-162-210200-
LAKE SUPERIOR

STATION/POSITION TIME  TEMP    WIND        PRES    WAVE
                       AIR SEA DIR/SP/G            HT/PER
                 (UTC) (F)     (DEG/KT/KT) (MB)    (FT/S)
W MID LAKE BUOY  2350   61 55  240/ 10/ 12 1009.2R   2/ 5
DEVILS ISLAND    0000   66     250/ 12/ 13 1009.7R
PORT WING        2240   81     250/  9/ 11 1009.8
SAXON HARBOR     0040   63     190/  2/  3 1010.2R
$$

LMZ867-665-643>646-210200-
LAKE MICHIGAN

STATION/POSITION TIME  TEMP    WIND        PRES    WAVE
                       AIR SEA DIR/SP/G            HT/PER
                 (UTC) (F)     (DEG/KT/KT) (MB)    (FT/S)
S GREEN BAY BUOY 0030   70 66  200/  6/  8 1010.0R
N MID LAKE BUOY  2350   66 65  320/  4/  4 1012.2R   2/ 4
NORTHPORT PIER   0040   67     140/  8/ 11 1010.8R
KEWAUNEE LAKESHO 0030   65     160/  7/  8 1010.1R
SHEBOYGAN LAKESH 0000   72     180/ 15/ 16 1009.7R
PORT WASHINGTON  0030   71     180/  4/  6 1010.8S
ATWATER BUOY     2309   71 65  170/ 14/ 16 1010.0R
MILWAUKEE LAKESH 0030   72     150/  7/  8   N/A
S MID LAKE BUOY  2350   74 69  140/ 14/ 16 1010.8F   1/ 3
KENOSHA   LAKESH 0000   73     190/ 10/ 17 1009.8
$$

TC  - TEMPERATURE IN CELSIUS
VSB - VISIBILITY IN STATUTE MILES
WCI - WIND CHILL INDEX
HX  - HEAT INDEX





USA.gov is the U.S. government's official web portal to all federal, state and local government web resources and services.